N6BK KBDL-KBID

Flight info

Callsign N6BK
Flight time 0h 32m
Altitude VFR/025
Route
Aircraft C172/L-DOV/C

Departure

Time 2026-04-21 19:03
Airport Bradley International Airport (KBDL)

Arrival

Time 2026-04-21 19:35
Airport Block Island State Airport (KBID)
Time Latitude Longitude Altitude Speed Heading
2026-04-21 19:02 41.65618 -72.40874 2731 ft 102 kts 124°
2026-04-21 19:03 41.65293 -72.40036 2757 ft 101 kts 123°
2026-04-21 19:03 41.64968 -72.39177 2710 ft 106 kts 123°
2026-04-21 19:03 41.64623 -72.38313 2680 ft 104 kts 125°
2026-04-21 19:03 41.64233 -72.37517 2653 ft 103 kts 131°
2026-04-21 19:04 41.63799 -72.36756 2639 ft 101 kts 134°
2026-04-21 19:04 41.63376 -72.36004 2586 ft 102 kts 132°
2026-04-21 19:04 41.62980 -72.35218 2537 ft 102 kts 132°
2026-04-21 19:04 41.62595 -72.34425 2505 ft 102 kts 129°
2026-04-21 19:05 41.62199 -72.33639 2460 ft 101 kts 130°
2026-04-21 19:05 41.61802 -72.32885 2445 ft 97 kts 135°
2026-04-21 19:05 41.61422 -72.32159 2440 ft 95 kts 134°
2026-04-21 19:05 41.61046 -72.31443 2449 ft 92 kts 134°
2026-04-21 19:06 41.60664 -72.30744 2458 ft 94 kts 135°
2026-04-21 19:06 41.60278 -72.30039 2461 ft 95 kts 133°
2026-04-21 19:06 41.59881 -72.29333 2494 ft 94 kts 133°
2026-04-21 19:06 41.59489 -72.28633 2519 ft 95 kts 134°
2026-04-21 19:07 41.59092 -72.27928 2505 ft 97 kts 133°
2026-04-21 19:07 41.58663 -72.27230 2510 ft 96 kts 137°
2026-04-21 19:07 41.58234 -72.26546 2519 ft 96 kts 135°
2026-04-21 19:07 41.57796 -72.25880 2532 ft 93 kts 138°
2026-04-21 19:08 41.57378 -72.25234 2547 ft 94 kts 137°
2026-04-21 19:08 41.56939 -72.24578 2647 ft 94 kts 141°
2026-04-21 19:08 41.56515 -72.23904 2651 ft 95 kts 137°
2026-04-21 19:08 41.56090 -72.23223 2654 ft 96 kts 138°
2026-04-21 19:09 41.55647 -72.22558 2642 ft 96 kts 138°
2026-04-21 19:09 41.55192 -72.21922 2658 ft 92 kts 143°
2026-04-21 19:09 41.54735 -72.21313 2636 ft 95 kts 141°
2026-04-21 19:09 41.54301 -72.20651 2647 ft 95 kts 137°
2026-04-21 19:10 41.53883 -72.19976 2662 ft 96 kts 140°
2026-04-21 19:10 41.53459 -72.19283 2649 ft 97 kts 137°
2026-04-21 19:10 41.53047 -72.18568 2628 ft 97 kts 134°
2026-04-21 19:10 41.52624 -72.17863 2638 ft 98 kts 133°
2026-04-21 19:11 41.52211 -72.17137 2609 ft 98 kts 134°
2026-04-21 19:11 41.51802 -72.16421 2605 ft 96 kts 135°
2026-04-21 19:11 41.51398 -72.15715 2599 ft 95 kts 135°
2026-04-21 19:11 41.50973 -72.15023 2570 ft 98 kts 136°
2026-04-21 19:12 41.50681 -72.14570 2562 ft 97 kts 137°
2026-04-21 19:12 41.50066 -72.13673 2569 ft 97 kts 141°
2026-04-21 19:12 41.49607 -72.13022 2543 ft 95 kts 140°
2026-04-21 19:12 41.49162 -72.12348 2492 ft 98 kts 137°
2026-04-21 19:13 41.48710 -72.11668 2502 ft 96 kts 140°
2026-04-21 19:13 41.48280 -72.10976 2518 ft 98 kts 136°
2026-04-21 19:13 41.47865 -72.10266 2520 ft 96 kts 135°
2026-04-21 19:13 41.47439 -72.09569 2534 ft 97 kts 137°
2026-04-21 19:14 41.47019 -72.08860 2543 ft 98 kts 135°
2026-04-21 19:14 41.46594 -72.08171 2546 ft 95 kts 138°
2026-04-21 19:14 41.46175 -72.07482 2524 ft 95 kts 137°
2026-04-21 19:14 41.45768 -72.06788 2526 ft 96 kts 138°
2026-04-21 19:15 41.45356 -72.06107 2511 ft 96 kts 136°
2026-04-21 19:15 41.44909 -72.05430 2482 ft 94 kts 139°
2026-04-21 19:15 41.44463 -72.04792 2455 ft 92 kts 140°
2026-04-21 19:15 41.44066 -72.04134 2476 ft 90 kts 137°
2026-04-21 19:16 41.43695 -72.03459 2480 ft 91 kts 136°
2026-04-21 19:16 41.43324 -72.02790 2475 ft 92 kts 133°
2026-04-21 19:16 41.42927 -72.02119 2476 ft 91 kts 135°
2026-04-21 19:16 41.42526 -72.01464 2495 ft 91 kts 135°
2026-04-21 19:17 41.41717 -72.00124 2461 ft 94 kts 138°
2026-04-21 19:17 41.41313 -71.99460 2511 ft 92 kts 136°
2026-04-21 19:17 41.40915 -71.98779 2528 ft 95 kts 134°
2026-04-21 19:18 41.40517 -71.98080 2562 ft 95 kts 135°
2026-04-21 19:18 41.40126 -71.97373 2578 ft 95 kts 137°
2026-04-21 19:18 41.39738 -71.96664 2601 ft 95 kts 133°
2026-04-21 19:18 41.39353 -71.95928 2627 ft 98 kts 133°
2026-04-21 19:19 41.38980 -71.95168 2641 ft 97 kts 132°
2026-04-21 19:19 41.38625 -71.94396 2703 ft 98 kts 127°
2026-04-21 19:19 41.38292 -71.93601 2707 ft 99 kts 127°
2026-04-21 19:19 41.37952 -71.92809 2717 ft 98 kts 127°
2026-04-21 19:20 41.37597 -71.92032 2707 ft 99 kts 129°
2026-04-21 19:20 41.37227 -71.91261 2728 ft 99 kts 130°
2026-04-21 19:20 41.36814 -71.90526 2695 ft 99 kts 132°
2026-04-21 19:20 41.36387 -71.89814 2687 ft 98 kts 133°
2026-04-21 19:21 41.35969 -71.89099 2676 ft 97 kts 133°
2026-04-21 19:21 41.35554 -71.88393 2656 ft 96 kts 134°
2026-04-21 19:21 41.35142 -71.87684 2652 ft 98 kts 131°
2026-04-21 19:21 41.34729 -71.86979 2638 ft 97 kts 133°
2026-04-21 19:22 41.34314 -71.86285 2638 ft 95 kts 134°
2026-04-21 19:22 41.33901 -71.85578 2574 ft 98 kts 134°
2026-04-21 19:22 41.33495 -71.84848 2555 ft 98 kts 132°
2026-04-21 19:22 41.33085 -71.84119 2560 ft 98 kts 133°
2026-04-21 19:23 41.32672 -71.83399 2588 ft 98 kts 132°
2026-04-21 19:23 41.32254 -71.82658 2538 ft 101 kts 131°
2026-04-21 19:23 41.31844 -71.81912 2573 ft 99 kts 132°
2026-04-21 19:23 41.31430 -71.81176 2539 ft 99 kts 132°
2026-04-21 19:24 41.30998 -71.80469 2533 ft 96 kts 136°
2026-04-21 19:24 41.30555 -71.79798 2513 ft 98 kts 134°
2026-04-21 19:24 41.30114 -71.79116 2514 ft 96 kts 135°
2026-04-21 19:24 41.29685 -71.78430 2514 ft 97 kts 133°
2026-04-21 19:25 41.29267 -71.77724 2508 ft 97 kts 134°
2026-04-21 19:25 41.28864 -71.77006 2502 ft 97 kts 132°
2026-04-21 19:25 41.28464 -71.76278 2467 ft 98 kts 130°
2026-04-21 19:25 41.28054 -71.75551 2459 ft 97 kts 132°
2026-04-21 19:26 41.27660 -71.74853 2522 ft 92 kts 133°
2026-04-21 19:26 41.27258 -71.74184 2548 ft 92 kts 135°
2026-04-21 19:26 41.26987 -71.73734 2560 ft 93 kts 135°
2026-04-21 19:26 41.26589 -71.73063 2595 ft 92 kts 135°
2026-04-21 19:27 41.26190 -71.72410 2617 ft 93 kts 133°
2026-04-21 19:27 41.25776 -71.71717 2621 ft 95 kts 132°
2026-04-21 19:27 41.25371 -71.71011 2633 ft 96 kts 130°
2026-04-21 19:27 41.24989 -71.70295 2670 ft 94 kts 131°
2026-04-21 19:28 41.24600 -71.69632 2623 ft 91 kts 134°
2026-04-21 19:28 41.24194 -71.68977 2514 ft 92 kts 134°
2026-04-21 19:28 41.23792 -71.68333 2420 ft 90 kts 133°
2026-04-21 19:28 41.23407 -71.67681 2349 ft 90 kts 131°
2026-04-21 19:29 41.23032 -71.67034 2282 ft 88 kts 133°
2026-04-21 19:29 41.22657 -71.66384 2182 ft 88 kts 133°
2026-04-21 19:29 41.22314 -71.65720 2099 ft 87 kts 131°
2026-04-21 19:29 41.21960 -71.65050 1991 ft 89 kts 128°
2026-04-21 19:30 41.21627 -71.64366 1907 ft 87 kts 131°
2026-04-21 19:30 41.21282 -71.63704 1827 ft 87 kts 133°
2026-04-21 19:30 41.20916 -71.63060 1745 ft 88 kts 134°
2026-04-21 19:30 41.20538 -71.62438 1658 ft 85 kts 137°
2026-04-21 19:31 41.20164 -71.61836 1552 ft 84 kts 135°
2026-04-21 19:31 41.19786 -71.61253 1455 ft 82 kts 136°
2026-04-21 19:31 41.19409 -71.60689 1365 ft 81 kts 137°
2026-04-21 19:31 41.19029 -71.60130 1260 ft 81 kts 140°
2026-04-21 19:32 41.18638 -71.59589 1198 ft 82 kts 141°
2026-04-21 19:32 41.18202 -71.59096 1217 ft 83 kts 146°
2026-04-21 19:32 41.17732 -71.58664 1212 ft 82 kts 152°
2026-04-21 19:32 41.17249 -71.58287 1173 ft 79 kts 155°
2026-04-21 19:33 41.16749 -71.57974 1117 ft 79 kts 160°
2026-04-21 19:33 41.16257 -71.57706 1111 ft 74 kts 161°
2026-04-21 19:33 41.15829 -71.57357 1015 ft 75 kts 130°
2026-04-21 19:33 41.15720 -71.56704 920 ft 70 kts 98°
2026-04-21 19:34 41.15736 -71.56049 823 ft 73 kts 85°
2026-04-21 19:34 41.16100 -71.55630 740 ft 75 kts
2026-04-21 19:34 41.16607 -71.55585 676 ft 73 kts 359°
2026-04-21 19:34 41.16938 -71.55964 536 ft 66 kts 265°
2026-04-21 19:35 41.16917 -71.56537 347 ft 57 kts 264°
2026-04-21 19:35 41.16837 -71.57537 112 ft 47 kts 262°
2026-04-21 19:35 41.16807 -71.57859 113 ft 27 kts 265°
2026-04-21 19:36 41.16802 -71.58012 111 ft 8 kts 330°
2026-04-21 19:36 41.16856 -71.58042 109 ft 8 kts 319°
2026-04-21 19:36 41.16888 -71.57995 109 ft 8 kts 78°
2026-04-21 19:36 41.16874 -71.57937 110 ft 4 kts 94°
2026-04-21 19:37 41.16882 -71.57933 109 ft 0 kts 343°